Regional Weather Roundup
Issued by NWS Charleston, SC

Home | Current Version | Previous Version | Text Only | Print | Product List | Glossary On
Versions: 1 2 3 4 5 6 7 8 9 10 11 12 13 14 15 16 17 18 19 20 21 22 23 24 25 26 27 28 29 30 31 32 33 34 35 36 37 38 39 40 41 42 43 44 45 46 47 48 49 50
000
ASUS42 KCHS 230612
RWRCHS

REGIONAL WEATHER ROUNDUP
NATIONAL WEATHER SERVICE CHARLESTON SC
200 AM EDT FRI JUN 23 2017

NOTE: "FAIR" INDICATES FEW OR NO CLOUDS BELOW 12,000 FEET WITH NO
SIGNIFICANT WEATHER AND/OR OBSTRUCTIONS TO VISIBILITY.

NOT ALL STATIONS ARE QUALITY CONTROLLED. USE DATA WITH CAUTION...
ESPECIALLY DEWPOINT OBSERVATIONS.

SCZ027-030-031-034>040-042>050-230700-
...SOUTHEAST SOUTH CAROLINA...

CITY           SKY/WX    TMP DP  RH WIND       PRES   REMARKS
N CHARLESTON   MOCLDY    79  76  90 S7        30.06F
6HR MIN TEMP:  78; 6HR MAX TEMP:  82; 6HR PCP: TRACE;

WATERFRONT PRK   N/A     81  78  91 S9        30.05F
JOHNS ISLAND   CLOUDY    81  79  94 S13       30.07S
PINOPOLIS        N/A     77  75  94 VRB2      30.00F
MONCKS CORNER  FAIR      73  73 100 CALM      30.06F FOG
SUMMERVILLE    FAIR      75  73  94 CALM      30.07F
BEAUFORT MCAS  PTCLDY    80  78  94 S6        30.06F
6HR MIN TEMP:  80; 6HR MAX TEMP:  84;

BEAUFORT ARPT  MOCLDY    81  75  83 S6        30.06F
HILTON HEAD IS CLOUDY    82  77  83 S10       30.07F HX  91
WALTERBORO     MOCLDY    75  75 100 SE3       30.07F
ALLENDALE      FAIR      77  77 100 CALM      30.05F

...SOUTHERN MIDLANDS AND PEE DEE...

CITY           SKY/WX    TMP DP  RH WIND       PRES   REMARKS
GEORGETOWN     FAIR      77  75  94 S5        30.08S
KINGSTREE      FAIR      73  72  94 CALM      30.06F
ORANGEBURG     CLOUDY    75  74  96 S3        30.06F
6HR MIN TEMP:  75; 6HR MAX TEMP:  80;

BARNWELL       MOCLDY    79  77  94 CALM      30.06F
AIKEN          FAIR      73  73 100 S6        30.10S
MANNING        MOCLDY    77  77 100 S12       30.06F
COLUMBIA       CLOUDY    79  75  87 S5        30.04F
6HR MIN TEMP:  78; 6HR MAX TEMP:  83;

SUMTER         CLOUDY    75  73  94 SW5       30.03F
6HR MIN TEMP:  75; 6HR MAX TEMP:  80; 6HR PCP: TRACE;

FLORENCE       CLOUDY    75  75 100 S5        30.05F
6HR MIN TEMP:  75; 6HR MAX TEMP:  81;

MYRTLE BEACH   NOT AVBL
N MYRTLE BEACH CLOUDY    79  78  97 SW10      30.06F
6HR MIN TEMP:  79; 6HR MAX TEMP:  80; 6HR PCP: TRACE;


$$

GAZ063-065-086>088-099>101-113>116-118-119-134>141-150-230700-
...SOUTHEAST GEORGIA...

CITY           SKY/WX    TMP DP  RH WIND       PRES   REMARKS
SAVANNAH ARPT  PTCLDY    80  75  84 S9        30.07F
6HR MIN TEMP:  80; 6HR MAX TEMP:  84;

HUNTER AAF     PTCLDY    80  76  86 S5        30.04F
6HR MIN TEMP:  80; 6HR MAX TEMP:  83;

FORT STEWART   CLOUDY    77  74  92 CALM      30.04F
6HR MIN TEMP:  77; 6HR MAX TEMP:  82; 6HR PCP: TRACE;

STATESBORO     CLOUDY    78  78 100 S3        30.05F
SYLVANIA       MOCLDY    78  78 100 CALM      30.07F
CLAXTON        FAIR     N/A N/A N/A CALM      30.06F

...CSRA...CENTRAL AND FAR SOUTHEAST GEORGIA...

CITY           SKY/WX    TMP DP  RH WIND       PRES   REMARKS
THOMSON        MOCLDY    77  73  87 SW7       30.10F
AUGUSTA-BUSH   CLOUDY    80  76  87 S7        30.04F
6HR MIN TEMP:  80; 6HR MAX TEMP:  86;

AUGUSTA-DANIEL PTCLDY    79  73  82 S7        30.06F
SWAINSBORO     FAIR      77  77 100 S5        30.07F
VIDALIA        CLOUDY    77  75  94 S3        30.06F
EASTMAN        FAIR      76  76 100 CALM      30.08F
HAZLEHURST     FAIR      77  77 100 S3        30.05S
ALMA           CLEAR     77  74  90 S5        30.06F
6HR MIN TEMP:  77; 6HR MAX TEMP:  82;

WAYCROSS       NOT AVBL
JESUP          FAIR      77  73  88 CALM      30.06F FOG
BAXLEY         FAIR      77  77 100 CALM      30.06S
BRUNSWICK      CLEAR     81  77  89 S6        30.07F
SAINT SIMONS   PTCLDY    82  75  79 S14G21    30.07F
6HR MIN TEMP:  82; 6HR MAX TEMP:  83;


$$

SCZ027-028-034-036>038-045-046-048>050-GAZ119-141-230700-
...LAKE AND SUPPLEMENTAL COASTAL OBSERVATIONS...

STATION/POSITION TIME  TEMP    WIND        PRES    WAVE   SWELL
                       AIR SEA DIR/SP/G            HT/PER HT/PER/DIR
                 (UTC) (F)     (DEG/KT/KT) (MB)    (FT/S) (FT/S/D)
WINYAH BAY       NOT AVBL
LAKE MURRAY      0520   79     180/  9/ 11 1016.6F
ACE BASIN NERRS  0445   81        CALM     1019.0
FORT PULASKI     0548      83  200/  6/ 10 1018.5F
SAPELO ISLAND    0500   80     180/ 10     1019.0

$$

ANZ835-935-AMZ111-154-330-350-352-354-370-450-454-472-230700-
...C-MAN AND BUOY OBSERVATIONS...

STATION/POSITION TIME  TEMP    WIND        PRES    WAVE   SWELL
                       AIR SEA DIR/SP/G            HT/PER HT/PER/DIR
                 (UTC) (F)     (DEG/KT/KT) (MB)    (FT/S) (FT/S/D)
BUOY 41004       0550   81 81  190/ 14/ 16 1018.1F   3/ 8   2/150/ 8
BUOY 41008       0550   81 82  170/ 16/ 19 1017.9F   3/ 8   2/110/ 8
FOLLY BEACH CMAN 0500   81     190/ 14/ 17 1019.1F
CAPERS NEARSHORE 0508   84 83  210/ 14/ 17 1018.3F
FRIPP NEARSHORE  0508   82 83  190/ 16/ 21 1018.2F


STATION/POSITION TIME  TEMP    WIND        PRES    WAVE   SWELL
                       AIR SEA DIR/SP/G            HT/PER HT/PER/DIR
                 (UTC) (F)     (DEG/KT/KT) (MB)    (FT/S) (FT/S/D)
5E ST. MARYS GA  0530      81                N/A     4/ 4
FRYING PAN BUOY  0550   81 81  210/ 14/ 16 1018.0F   3/ 8   3/130/ 8
BUOY 41025       0550   80 80  250/ 14/ 16 1017.2F   3/ 8   3/160/ 8
CAPE LOOKOUT NC  0500   79     230/  7/ 10 1017.9F
BUOY 41002       0450   80 82  200/ 12/ 14 1020.3    4/ 9   3/110/ 9
BUOY 41010       0550   82 83  150/ 10/ 14 1019.0F   5/ 8   5/130/ 8
ST AUGUSTINE FL  0600   78 78  180/  6/  7 1019.0F


$$




USA.gov is the U.S. government's official web portal to all federal, state and local government web resources and services.